Regional Weather Roundup
Issued by NWS

Home | Current Version | Previous Version | Graphics & Text | Print | Product List | Glossary Off
Versions: 1 2 3 4 5 6 7 8 9 10 11 12 13 14 15 16 17 18 19 20 21 22 23 24 25 26 27 28 29 30 31 32 33 34 35 36 37 38 39 40 41 42 43 44 45 46 47 48 49 50

000
ASUS43 KMKX 010910
RWRWI

WISCONSIN REGIONAL WEATHER ROUNDUP
NATIONAL WEATHER SERVICE MILWAUKEE/SULLIVAN WI
300 AM CST SUN MAR 01 2015

NOTE: "FAIR" INDICATES FEW OR NO CLOUDS BELOW 12,000 FEET WITH NO
SIGNIFICANT WEATHER AND/OR OBSTRUCTIONS TO VISIBILITY.

WIZ001-002-006>008-014>016-023>028-011000-
NORTHWEST WISCONSIN

CITY           SKY/WX    TMP DP  RH WIND       PRES   REMARKS
SUPERIOR ARPT  FLURRIES  14   8  79 SW10      30.21F WCI   1
ASHLAND        CLOUDY    14   6  70 SW14      30.22F WCI  -1
HAYWARD        LGT SNOW  12   5  73 S9        30.21F WCI   0
SIREN          CLOUDY    15   9  76 SW9       30.22F WCI   3
CUMBERLAND     LGT SNOW  12   9  85 S9        30.23F WCI   0
RICE LAKE      LGT SNOW  12   7  80 S8        30.27F WCI   0
CHETEK         FLURRIES  12   6  78 S6        30.27F WCI   2
LADYSMITH      FLURRIES  11   4  71 S6        30.27F WCI   2
EAU CLAIRE     FLURRIES  13   5  70 S8        30.30F WCI   2
MENOMONIE      FLURRIES  14   8  78 S6        30.30F WCI   5
NEW RICHMOND   LGT SNOW  14   9  82 S12       30.25F WCI   0
OSCEOLA        MOCLDY    15  10  81 S9        30.28F WCI   3
$$

WIZ003>005-009-010-017-018-011000-
NORTH CENTRAL WISCONSIN

CITY           SKY/WX    TMP DP  RH WIND       PRES   REMARKS
MANITOWISH WTR CLOUDY    10   0  66 SW9       30.18F WCI  -4
ARBOR VITAE    MOCLDY    11   1  64 SW7       30.20F WCI   1
WOODRUFF       MOCLDY    11   1  64 SW7       30.20F WCI   1
RHINELANDER    CLOUDY     9  -2  61 SW10      30.22F WCI  -5
EAGLE RIVER    PTCLDY     9  -3  57 SW7       30.19F WCI  -2
LAND O LAKES   CLOUDY    10  -1  63 SW3       30.19F
PHILLIPS       CLOUDY    10   1  68 SW8       30.21F WCI  -3
TOMAHAWK       CLOUDY     8  -1  66 CALM      30.24F
MEDFORD        CLOUDY     9   1  69 SW9       30.25S WCI  -4
MERRILL        CLOUDY    10   1  66 SW6       30.26F WCI   0
$$

WIZ029-030-035-036-043>047-011000-
CENTRAL WISCONSIN

CITY           SKY/WX    TMP DP  RH WIND       PRES   REMARKS
WAUSAU         CLOUDY    10   0  63 S12       30.28F WCI  -5
MOSINEE        CLOUDY    10   3  72 S8        30.30F WCI  -1
MARSHFIELD     CLOUDY    11   1  64 SW12      30.29F WCI  -3
STEVENS POINT  FLURRIES   8  -1  65 SW6       30.32F WCI  -2
WAUPACA        CLEAR     10   1  67 S5        30.36F WCI   2
WAUTOMA        CLOUDY    10   3  72 CALM      30.37F
WISC RAPIDS    CLOUDY    11   0  61 S8        30.34F WCI  -1
CAMP DOUGLAS   CLOUDY    10   6  84 S7        30.34F WCI   0
$$

WIZ011>013-019>022-031-037>040-048>050-011000-
NORTHEAST WISCONSIN

CITY           SKY/WX    TMP DP  RH WIND       PRES   REMARKS
ANTIGO         PTCLDY     7  -2  68 SW9       30.25F WCI  -7
SHAWANO        CLEAR     14   1  57 SW3       30.34F
OCONTO         CLOUDY    13   3  64 SW5       30.35F WCI   6
STURGEON BAY   CLOUDY    14   3  62 SW8       30.36F WCI   3
GREEN BAY      CLEAR     13   6  74 SW7       30.36F WCI   3
MANITOWOC      FLURRIES  14   9  80 SW7       30.38F WCI   4
APPLETON       FLURRIES  12   5  73 SW8       30.35F WCI   1
CLINTONVILLE   CLEAR     10   1  67 SW6       30.34F WCI   1
OSHKOSH        CLOUDY    11   6  81 SW3       30.36F
$$

WIZ032>034-041-042-053>061-011000-
SOUTHWEST WISCONSIN

CITY           SKY/WX    TMP DP  RH WIND       PRES   REMARKS
LA CROSSE      PTCLDY    11   5  77 S7        30.36F WCI   0
SPARTA         FLURRIES   9   4  79 S3        30.36F
VIROQUA        CLOUDY     8   6  89 S6        30.32F WCI  -2
BOSCOBEL       CLOUDY     7   2  80 CALM      30.41F
PRAIRIE DU CHI LGT SNOW   8   2  79 CALM      30.39F
PLATTEVILLE    CLOUDY    12   9  89 CALM      30.37F
$$

WIZ056-057-062-063-064-067-068-011000-
SOUTH CENTRAL WISCONSIN

CITY           SKY/WX    TMP DP  RH WIND       PRES   REMARKS
REEDSBURG      LGT SNOW   9   6  85 CALM      30.37F
BARABOO/DELLS  LGT SNOW  10   6  85 SW3       30.36F
LONE ROCK      CLOUDY    11   6  81 CALM      30.40F HAZE
MINERAL POINT  LGT SNOW  14  12  92 S5        30.35F WCI   6
MADISON        CLOUDY    15  11  83 SW6       30.37F WCI   6
MIDDLETON      CLOUDY    16  12  84 SW6       30.37F WCI   7
WATERTOWN      FLURRIES  12  10  93 CALM      30.37F
MONROE         LGT SNOW  14  12  92 S7        30.35F WCI   4
JANESVILLE     LGT SNOW  14  12  92 CALM      30.38F
$$

WIZ051-052-058>065-066-070>072-011000-
SOUTHEAST WISCONSIN

CITY           SKY/WX    TMP DP  RH WIND       PRES   REMARKS
MILWAUKEE      PTCLDY    13   8  81 SW5       30.39F WCI   5
WAUKESHA       FLURRIES  10   9  92 S3        30.38F
MILWAUKEE/TIMM CLEAR     12   9  85 CALM      30.40F
RACINE         PTCLDY    10   6  84 W3        30.41F
BURLINGTON     MOCLDY     4   1  87 SW3       30.39S
KENOSHA        PTCLDY     6   3  87 CALM      30.39F FOG
FOND DU LAC    LGT SNOW  12   7  80 SW6       30.37F WCI   3
SHEBOYGAN      MOCLDY    10   6  84 SW3       30.37F
WEST BEND      LGT SNOW  12   9  85 SW3       30.37F
JUNEAU         FLURRIES  13  10  89 S5        30.38F WCI   5
$$

LSZ147-162-011000-
LAKE SUPERIOR

STATION/POSITION TIME  TEMP    WIND        PRES    WAVE
                       AIR SEA DIR/SP/G            HT/PER
                 (UTC) (F)     (DEG/KT/KT) (MB)    (FT/S)
DEVILS ISLAND    0900   15     230/ 12/ 16 1024.1F
PORT WING        0800   15     190/  9/ 15 1023.7
SAXON HARBOR     0800   15     190/  8/ 15 1024.0F
$$

LMZ867-665-643>646-011000-
LAKE MICHIGAN

STATION/POSITION TIME  TEMP    WIND        PRES    WAVE
                       AIR SEA DIR/SP/G            HT/PER
                 (UTC) (F)     (DEG/KT/KT) (MB)    (FT/S)
NORTHPORT PIER   0804   16     230/  6/ 13 1028.1F
KEWAUNEE LAKESHO 0800   17     230/  8/ 11 1028.2F
SHEBOYGAN LAKESH 0900   15     240/  7/  8 1030.4F
PORT WASHINGTON  0840   15     280/  3/  3 1029.8F
MILWAUKEE LAKESH 0800   18     220/  6/  7   N/A
KENOSHA   LAKESH 0900   17     230/  4/  5 1029.5F
$$

TC  - TEMPERATURE IN CELSIUS
VSB - VISIBILITY IN STATUTE MILES
WCI - WIND CHILL INDEX
HX  - HEAT INDEX




USA.gov is the U.S. government's official web portal to all federal, state and local government web resources and services.